Weather History for Rochester, NY

Change the Weather History Date:

Tuesday, May 28, 2013

  Actual Average Record
Temperature  
Mean Temperature 57 °F 61 °F  
Max Temperature 64 °F 71 °F 93 °F (1911)
Min Temperature 50 °F 50 °F 35 °F (1949)
Degree Days  
Heating Degree Days 8 6  
Month to date heating degree days 174 260  
Since 1 July heating degree days 5998 6563  
Cooling Degree Days 0 1  
Month to date cooling degree days 38 19  
Year to date cooling degree days 39 23  
Growing Degree Days 7 (Base 50)    
Moisture  
Dew Point 53 °F    
Average Humidity 76    
Maximum Humidity 97    
Minimum Humidity 55    
Precipitation  
Precipitation 0.90 in 0.09 in 1.73 in (2009)
Month to date precipitation 3.18 2.59  
Year to date precipitation 11.05 12.18  
Snow  
Snow 0.00 in 0.00 in 0.00 in ()
Month to date snowfall T 0.4  
Since 1 July snowfall 78.1 99.5  
Snow Depth 0.00 in    
Sea Level Pressure  
Sea Level Pressure 30.05 in    
Wind  
Wind Speed 5 mph (SSE)    
Max Wind Speed 14 mph    
Max Gust Speed 16 mph    
Visibility 9 miles    
Events Fog , Rain , Thunderstorm    
T = Trace of Precipitation, MM = Missing Value Source: NWS Daily Summary

Daily Weather History Graph

Daily Weather History Graph

Search for Another Location

Airport:

Trip Planner

Search our weather history database for the weather conditions in past years. The results will help you decide how hot, cold, wet, or windy it might be!

Date:

Astronomy

May. 28, 2013 Rise Set
Actual Time 5:36 AM EDT 8:40 PM EDT
Civil Twilight 5:01 AM EDT 9:14 PM EDT
Nautical Twilight 4:18 AM EDT 9:58 PM EDT
Astronomical Twilight 3:26 AM EDT 10:51 PM EDT
Moon 11:59 PM EDT (5/28) 9:24 AM EDT (5/28)
Length of Visible Light 16h 12m
Length of Day
15h 04m
Waning Gibbous, 83% of the Moon is Illuminated
May 28
Waning Gibbous
May 31
Last Quarter
Jun 8
New
Jun 16
First Quarter
Jun 23
Full

Hourly Weather History & Observations

Time (EDT) Temp. Dew Point Humidity Pressure Visibility Wind Dir Wind Speed Gust Speed Precip Events Conditions
12:54 AM 53.1 °F 43.0 °F 69% 30.17 in 10.0 mi Calm Calm - N/A   Overcast
1:54 AM 50.0 °F 44.1 °F 80% 30.16 in 10.0 mi SW 5.8 mph - N/A   Overcast
2:54 AM 54.0 °F 39.9 °F 59% 30.15 in 10.0 mi Calm Calm - N/A   Overcast
3:54 AM 52.0 °F 42.1 °F 69% 30.13 in 10.0 mi Calm Calm - N/A   Overcast
4:54 AM 52.0 °F 43.0 °F 71% 30.11 in 10.0 mi Calm Calm - N/A   Overcast
5:54 AM 54.0 °F 41.0 °F 62% 30.09 in 10.0 mi Calm Calm - N/A   Overcast
6:54 AM 55.9 °F 39.9 °F 55% 30.09 in 10.0 mi South 4.6 mph - N/A   Overcast
7:54 AM 57.0 °F 41.0 °F 55% 30.09 in 10.0 mi South 4.6 mph - N/A   Overcast
8:54 AM 54.0 °F 46.9 °F 77% 30.11 in 9.0 mi SW 4.6 mph - 0.00 in Rain Light Rain
9:54 AM 55.0 °F 50.0 °F 83% 30.10 in 7.0 mi SE 4.6 mph - 0.07 in Rain Light Rain
10:54 AM 54.0 °F 50.0 °F 86% 30.11 in 7.0 mi ESE 4.6 mph - 0.09 in Rain Light Rain
11:54 AM 55.9 °F 54.0 °F 93% 30.09 in 8.0 mi SE 8.1 mph - 0.07 in Rain Light Rain
12:54 PM 59.0 °F 55.9 °F 90% 30.08 in 10.0 mi SSE 4.6 mph - 0.00 in Rain Light Rain
1:54 PM 61.0 °F 57.0 °F 87% 30.06 in 10.0 mi SSE 8.1 mph - 0.00 in Rain Light Rain
2:18 PM 62.6 °F 57.2 °F 82% 30.05 in 10.0 mi SSE 9.2 mph - 0.00 in   Overcast
2:54 PM 62.1 °F 57.0 °F 84% 30.06 in 10.0 mi SSE 5.8 mph - 0.00 in   Overcast
3:54 PM 64.0 °F 57.9 °F 80% 30.06 in 10.0 mi SSW 4.6 mph - N/A   Overcast
4:54 PM 64.0 °F 57.9 °F 80% 30.03 in 10.0 mi SSE 8.1 mph - 0.00 in   Overcast
5:09 PM 64.4 °F 57.2 °F 77% 30.02 in 10.0 mi South 6.9 mph - N/A   Overcast
5:54 PM 63.0 °F 59.0 °F 87% 30.01 in 10.0 mi South 6.9 mph - 0.01 in Rain Light Rain
5:59 PM 62.6 °F 57.2 °F 82% 30.00 in 10.0 mi SSE 8.1 mph - 0.00 in Rain Light Rain
6:54 PM 62.1 °F 57.9 °F 86% 30.00 in 10.0 mi SSE 6.9 mph - 0.01 in   Overcast
7:23 PM 62.6 °F 59.0 °F 88% 29.98 in 10.0 mi SSE 6.9 mph - N/A   Overcast
7:54 PM 62.1 °F 59.0 °F 90% 29.98 in 10.0 mi SE 8.1 mph - 0.00 in Rain Light Rain
8:21 PM 62.6 °F 57.2 °F 82% 29.99 in 1.5 mi SE 5.8 mph - 0.06 in Rain Heavy Rain
8:35 PM 60.8 °F 59.0 °F 94% 30.01 in 3.0 mi Calm Calm - 0.17 in Rain Light Rain
8:42 PM 60.8 °F 59.0 °F 94% 30.03 in 0.5 mi North 6.9 mph - 0.21 in Fog , Rain , Thunderstorm Heavy Thunderstorms and Rain
8:54 PM 61.0 °F 59.0 °F 93% 30.00 in 2.0 mi SE 11.5 mph - 0.35 in Rain , Thunderstorm Heavy Thunderstorms and Rain
9:17 PM 60.8 °F 59.0 °F 94% 29.97 in 4.0 mi SE 10.4 mph - 0.24 in Rain , Thunderstorm Thunderstorms and Rain
9:25 PM 60.8 °F 60.8 °F 100% 29.97 in 6.0 mi SSE 8.1 mph - 0.26 in Rain Rain
9:54 PM 62.1 °F 60.1 °F 93% 29.96 in 10.0 mi SSE 10.4 mph - 0.30 in Rain Light Rain
10:54 PM 61.0 °F 59.0 °F 93% 29.95 in 10.0 mi SE 8.1 mph - 0.00 in   Mostly Cloudy
11:54 PM 61.0 °F 59.0 °F 93% 29.95 in 10.0 mi South 4.6 mph - N/A   Mostly Cloudy